Location: ??
(34.7707°N, 135.6540°E)
Time: 18:54:33
(UTC+00:00)

CZ-2C R/B - Pass Details

Date: 09 April 2020
Orbit: 669 x 783 km, 98.2° (Epoch: 06 June)

Event Time Altitude Azimuth Distance (km) Brightness Sun altitude
Rises 18:52:24 0° 16° (NNE) 3,017 6.2 -20.3°
Reaches altitude 10° 18:54:39 10° 19° (NNE) 2,100 5.4 -19.9°
Maximum altitude 18:59:11 63° 101° (E) 750 2.6 -19.1°
Drops below altitude 10° 19:03:45 10° 183° (S) 2,112 4.5 -18.2°
Enters shadow 19:03:54 - 183° (S) 2,173 4.6 -18.2°
